Location: Zagreb
(45.8150°N, 15.9819°E)
Time: 13:47:36
(UTC+02:00)

STARLINK-1575 - Pass Details

Date: 21 September 2020
Orbit: 379 x 380 km, 53.0° (Epoch: 20 October)

Event Time Altitude Azimuth Distance (km) Brightness Sun altitude
Exits shadow 04:52:43 24° 340° (NNW) 841 4.6 -19.4°
Maximum altitude 04:53:00 24° 349° (N) 834 4.6 -19.3°
Drops below altitude 10° 04:55:38 10° 46° (NE) 1,399 6.7 -18.9°
Sets 04:57:55 0° 61° (ENE) 2,253 8.4 -18.5°
